Weather History for Columbia, MO

Change the Weather History Date:

Thursday, March 7, 2013

  Actual Average Record
Temperature  
Mean Temperature 32 °F 41 °F  
Max Temperature 45 °F 52 °F 83 °F (1974)
Min Temperature 18 °F 31 °F -1 °F (1920)
Degree Days  
Heating Degree Days 33 24  
Month to date heating degree days 239 174  
Since 1 July heating degree days 3822 4120  
Cooling Degree Days 0 0  
Month to date cooling degree days 0 0  
Year to date cooling degree days 1 0  
Moisture  
Dew Point 23 °F    
Average Humidity 68    
Maximum Humidity 91    
Minimum Humidity 45    
Precipitation  
Precipitation 0.00 in 0.09 in 1.60 in (1903)
Month to date precipitation 0.05 0.61  
Year to date precipitation 6.29 4.78  
Snow  
Snow 0.00 in 0.10 in 10.10 in (1931)
Month to date snowfall 0.3 0.6  
Since 1 July snowfall 25.0 16.7  
Snow Depth 6.00 in    
Sea Level Pressure  
Sea Level Pressure 30.32 in    
Wind  
Wind Speed 8 mph (East)    
Max Wind Speed 14 mph    
Max Gust Speed 19 mph    
Visibility 10 miles    
Events      
T = Trace of Precipitation, MM = Missing Value Source: NWS Daily Summary

Daily Weather History Graph

Daily Weather History Graph

Search for Another Location

Airport:

Trip Planner

Search our weather history database for the weather conditions in past years. The results will help you decide how hot, cold, wet, or windy it might be!

Date:

Astronomy

Mar. 07, 2013 Rise Set
Actual Time 6:31 AM CST 6:08 PM CST
Civil Twilight 6:05 AM CST 6:34 PM CST
Nautical Twilight 5:34 AM CST 7:05 PM CST
Astronomical Twilight 5:03 AM CST 7:36 PM CST
Moon 3:29 AM CST (3/7) 1:58 PM CST (3/7)
Length of Visible Light 12h 29m
Length of Day
11h 36m
Waning Crescent, 20% of the Moon is Illuminated
Mar 7
Waning Crescent
Mar 11
New
Mar 19
First Quarter
Mar 27
Full
Apr 2
Last Quarter

Hourly Weather History & Observations

Time (CST) Temp. Windchill Dew Point Humidity Pressure Visibility Wind Dir Wind Speed Gust Speed Precip Events Conditions
12:54 AM 23.0 °F 14.7 °F 18.0 °F 81% 30.35 in 10.0 mi ENE 6.9 mph - N/A   Clear
1:54 AM 23.0 °F 15.8 °F 18.0 °F 81% 30.36 in 10.0 mi East 5.8 mph - N/A   Clear
2:54 AM 21.9 °F 15.7 °F 18.0 °F 85% 30.37 in 10.0 mi East 4.6 mph - N/A   Clear
3:54 AM 21.0 °F 13.4 °F 18.0 °F 88% 30.36 in 8.0 mi ESE 5.8 mph - N/A   Clear
4:54 AM 19.9 °F 12.1 °F 17.1 °F 89% 30.36 in 8.0 mi East 5.8 mph - N/A   Clear
5:54 AM 19.0 °F 11.1 °F 17.1 °F 92% 30.36 in 7.0 mi East 5.8 mph - N/A   Clear
6:54 AM 19.0 °F 9.0 °F 16.0 °F 88% 30.38 in 6.0 mi East 8.1 mph - N/A   Clear
7:54 AM 24.1 °F 14.4 °F 19.0 °F 81% 30.38 in 8.0 mi ESE 9.2 mph - N/A   Clear
8:54 AM 28.0 °F 19.3 °F 21.0 °F 75% 30.38 in 10.0 mi ESE 9.2 mph - N/A   Clear
9:54 AM 32.0 °F 24.8 °F 21.9 °F 66% 30.39 in 10.0 mi SE 8.1 mph - N/A   Clear
10:54 AM 35.1 °F 29.3 °F 23.0 °F 61% 30.37 in 10.0 mi SE 6.9 mph - N/A   Clear
11:54 AM 37.9 °F 32.7 °F 24.1 °F 57% 30.36 in 10.0 mi SE 6.9 mph - N/A   Clear
12:54 PM 41.0 °F 35.2 °F 25.0 °F 53% 30.33 in 10.0 mi SE 9.2 mph - N/A   Clear
1:54 PM 43.0 °F 38.2 °F 25.0 °F 49% 30.30 in 10.0 mi ESE 8.1 mph - N/A   Clear
2:54 PM 45.0 °F 41.8 °F 25.0 °F 46% 30.29 in 10.0 mi East 5.8 mph - N/A   Clear
3:54 PM 44.1 °F 39.5 °F 26.1 °F 49% 30.27 in 10.0 mi East 8.1 mph - N/A   Clear
4:54 PM 44.1 °F 40.1 °F 27.0 °F 51% 30.26 in 10.0 mi East 6.9 mph - N/A   Clear
5:54 PM 43.0 °F 37.7 °F 27.0 °F 53% 30.26 in 10.0 mi East 9.2 mph - N/A   Clear
6:54 PM 39.0 °F 31.4 °F 27.0 °F 62% 30.27 in 10.0 mi ENE 12.7 mph - N/A   Clear
7:54 PM 37.9 °F 30.9 °F 27.0 °F 65% 30.27 in 10.0 mi East 10.4 mph - N/A   Clear
8:54 PM 39.0 °F 31.4 °F 26.1 °F 60% 30.27 in 10.0 mi East 12.7 mph - N/A   Clear
9:54 PM 37.9 °F 30.9 °F 27.0 °F 65% 30.28 in 10.0 mi East 10.4 mph - N/A   Clear
10:54 PM 37.9 °F 30.5 °F 27.0 °F 65% 30.29 in 10.0 mi ESE 11.5 mph - N/A   Clear
11:54 PM 37.0 °F 29.3 °F 27.0 °F 67% 30.29 in 10.0 mi ESE 11.5 mph - N/A   Clear